• In Uzbekistan
  • List of Countries
  • For 7 days
  • Water Temperature
  • Satellite Maps
  • Weather Map
  • Weather Widgets
  • user-avatar
    Login

    Hourly Weather Goiania

    Today, 19 September, Tuesday

    Time Temperature Precipitation Wind Pressure Humidity
    00:00 +25°C° 0 mm 2 mps 701 mmHg 35%
    01:00 +24°C° 0 mm 2 mps 701 mmHg 36%
    02:00 +24°C° 0 mm 2 mps 700 mmHg 38%
    03:00 +24°C° 0 mm 3 mps 700 mmHg 39%
    04:00 +24°C° 0 mm 3 mps 700 mmHg 40%
    05:00 +22°C° 0 mm 4 mps 700 mmHg 41%
    06:00 +22°C° 0 mm 4 mps 700 mmHg 42%
    07:00 +25°C° 0 mm 4 mps 701 mmHg 39%
    08:00 +27°C° 0 mm 5 mps 702 mmHg 36%
    09:00 +29°C° 0 mm 5 mps 702 mmHg 34%
    10:00 +32°C° 0 mm 5 mps 702 mmHg 29%
    11:00 +34°C° 0 mm 4 mps 702 mmHg 24%
    12:00 +36°C° 0 mm 3 mps 702 mmHg 19%
    13:00 +36°C° 0 mm 3 mps 702 mmHg 18%
    14:00 +36°C° 0 mm 3 mps 701 mmHg 17%
    15:00 +37°C° 0 mm 3 mps 701 mmHg 16%
    16:00 +35°C° 0 mm 3 mps 700 mmHg 18%
    17:00 +34°C° 0 mm 2 mps 700 mmHg 20%
    18:00 +32°C° 0 mm 2 mps 699 mmHg 22%
    19:00 +30°C° 0 mm 2 mps 700 mmHg 24%
    20:00 +29°C° 0 mm 3 mps 700 mmHg 25%
    21:00 +28°C° 0 mm 3 mps 700 mmHg 27%
    22:00 +28°C° 0 mm 3 mps 701 mmHg 29%
    23:00 +27°C° 0 mm 3 mps 701 mmHg 32%

    Tomorrow, 20 September, Wednesday

    Time Temperature Precipitation Wind Pressure Humidity
    00:00 +27°C° 0 mm 3 mps 701 mmHg 34%
    01:00 +26°C° 0.1 mm 3 mps 700 mmHg 36%
    02:00 +25°C° 0.1 mm 2 mps 700 mmHg 38%
    03:00 +25°C° 0.1 mm 2 mps 699 mmHg 40%
    04:00 +24°C° 0 mm 3 mps 700 mmHg 42%
    05:00 +24°C° 0 mm 3 mps 700 mmHg 44%
    06:00 +23°C° 0 mm 4 mps 700 mmHg 46%
    07:00 +25°C° 0 mm 4 mps 701 mmHg 46%
    08:00 +26°C° 0 mm 5 mps 702 mmHg 45%
    09:00 +27°C° 0 mm 5 mps 702 mmHg 45%
    10:00 +29°C° 0 mm 5 mps 702 mmHg 38%
    11:00 +33°C° 0 mm 4 mps 702 mmHg 31%
    12:00 +35°C° 0 mm 3 mps 702 mmHg 24%
    13:00 +35°C° 0 mm 3 mps 701 mmHg 23%
    14:00 +35°C° 0 mm 2 mps 701 mmHg 22%
    15:00 +34°C° 0 mm 2 mps 700 mmHg 21%
    16:00 +32°C° 0 mm 2 mps 700 mmHg 24%
    17:00 +31°C° 0 mm 2 mps 700 mmHg 26%
    18:00 +30°C° 0 mm 2 mps 699 mmHg 29%
    19:00 +29°C° 0 mm 3 mps 700 mmHg 33%
    20:00 +28°C° 0 mm 3 mps 701 mmHg 38%
    21:00 +27°C° 0 mm 4 mps 701 mmHg 42%
    22:00 +26°C° 0 mm 3 mps 701 mmHg 46%
    23:00 +25°C° 0 mm 3 mps 701 mmHg 50%

    Day after tomorrow, 21 September, Thursday

    Time Temperature Precipitation Wind Pressure Humidity
    00:00 +25°C° 0 mm 3 mps 701 mmHg 53%
    01:00 +24°C° 0 mm 2 mps 701 mmHg 54%
    02:00 +24°C° 0 mm 2 mps 700 mmHg 56%
    03:00 +23°C° 0 mm 1 mps 700 mmHg 57%
    04:00 +23°C° 0 mm 2 mps 700 mmHg 57%
    05:00 +23°C° 0 mm 2 mps 700 mmHg 58%
    06:00 +21°C° 0 mm 3 mps 700 mmHg 58%
    07:00 +23°C° 0 mm 4 mps 701 mmHg 53%
    08:00 +26°C° 0 mm 5 mps 702 mmHg 49%
    09:00 +27°C° 0 mm 5 mps 703 mmHg 44%
    10:00 +29°C° 0 mm 5 mps 703 mmHg 39%
    11:00 +32°C° 0 mm 4 mps 703 mmHg 34%
    12:00 +34°C° 0 mm 4 mps 703 mmHg 28%
    13:00 +33°C° 0 mm 3 mps 702 mmHg 29%
    14:00 +33°C° 0 mm 3 mps 701 mmHg 29%
    15:00 +33°C° 0 mm 3 mps 700 mmHg 29%
    16:00 +31°C° 0.1 mm 2 mps 700 mmHg 32%
    17:00 +30°C° 0.1 mm 2 mps 700 mmHg 35%
    18:00 +29°C° 0.1 mm 2 mps 699 mmHg 37%
    19:00 +28°C° 0.4 mm 2 mps 700 mmHg 41%
    20:00 +27°C° 0.4 mm 2 mps 700 mmHg 45%
    21:00 +25°C° 0.4 mm 3 mps 700 mmHg 49%
    22:00 +25°C° 0.3 mm 2 mps 700 mmHg 52%
    23:00 +24°C° 0.3 mm 2 mps 700 mmHg 54%

    22 September, Friday

    Time Temperature Precipitation Wind Pressure Humidity
    00:00 +24°C° 0.3 mm 2 mps 700 mmHg 57%
    01:00 +23°C° 0.1 mm 2 mps 700 mmHg 58%
    02:00 +23°C° 0.1 mm 2 mps 699 mmHg 60%
    03:00 +21°C° 0.1 mm 3 mps 699 mmHg 61%
    04:00 +21°C° 0 mm 3 mps 699 mmHg 60%
    05:00 +21°C° 0 mm 3 mps 699 mmHg 60%
    06:00 +21°C° 0 mm 3 mps 700 mmHg 59%
    07:00 +23°C° 0 mm 4 mps 700 mmHg 53%
    08:00 +26°C° 0 mm 4 mps 701 mmHg 48%
    09:00 +28°C° 0 mm 5 mps 702 mmHg 42%
    10:00 +30°C° 0 mm 4 mps 701 mmHg 36%
    11:00 +33°C° 0 mm 3 mps 701 mmHg 31%
    12:00 +35°C° 0 mm 3 mps 701 mmHg 25%
    13:00 +35°C° 0 mm 2 mps 700 mmHg 24%
    14:00 +36°C° 0 mm 2 mps 699 mmHg 22%
    15:00 +36°C° 0 mm 2 mps 699 mmHg 21%
    16:00 +35°C° 0 mm 2 mps 699 mmHg 23%
    17:00 +32°C° 0 mm 2 mps 699 mmHg 26%
    18:00 +31°C° 0 mm 2 mps 699 mmHg 29%
    19:00 +30°C° 0 mm 3 mps 699 mmHg 32%
    20:00 +30°C° 0 mm 4 mps 700 mmHg 35%
    21:00 +29°C° 0 mm 4 mps 700 mmHg 38%
    22:00 +28°C° 0 mm 4 mps 700 mmHg 42%
    23:00 +27°C° 0 mm 4 mps 700 mmHg 45%

    23 September, Saturday

    Time Temperature Precipitation Wind Pressure Humidity
    00:00 +26°C° 0 mm 4 mps 700 mmHg 49%
    01:00 +25°C° 0 mm 4 mps 700 mmHg 50%
    02:00 +25°C° 0 mm 3 mps 699 mmHg 52%
    03:00 +24°C° 0 mm 3 mps 699 mmHg 54%
    04:00 +24°C° 0 mm 3 mps 699 mmHg 52%
    05:00 +24°C° 0 mm 3 mps 699 mmHg 50%
    06:00 +23°C° 0 mm 4 mps 700 mmHg 49%
    07:00 +26°C° 0 mm 4 mps 700 mmHg 43%
    08:00 +27°C° 0 mm 4 mps 701 mmHg 38%
    09:00 +29°C° 0 mm 4 mps 702 mmHg 33%
    10:00 +33°C° 0 mm 3 mps 701 mmHg 29%
    11:00 +35°C° 0 mm 2 mps 701 mmHg 25%
    12:00 +37°C° 0 mm 1 mps 701 mmHg 21%
    13:00 +36°C° 0 mm 1 mps 700 mmHg 21%
    14:00 +35°C° 0 mm 1 mps 699 mmHg 22%
    15:00 +33°C° 0 mm 0 mps 699 mmHg 22%
    16:00 +32°C° 0 mm 0 mps 699 mmHg 23%
    17:00 +33°C° 0 mm 1 mps 698 mmHg 25%
    18:00 +32°C° 0 mm 1 mps 698 mmHg 27%
    19:00 +31°C° 0 mm 1 mps 699 mmHg 28%
    20:00 +30°C° 0 mm 1 mps 699 mmHg 29%
    21:00 +29°C° 0 mm 1 mps 699 mmHg 31%
    22:00 +28°C° 0 mm 1 mps 699 mmHg 33%
    23:00 +27°C° 0 mm 2 mps 699 mmHg 34%

    24 September, Sunday

    Time Temperature Precipitation Wind Pressure Humidity
    00:00 +27°C° 0 mm 2 mps 699 mmHg 36%
    01:00 +26°C° 0 mm 2 mps 698 mmHg 38%
    02:00 +26°C° 0 mm 2 mps 698 mmHg 40%
    03:00 +25°C° 0 mm 2 mps 698 mmHg 42%
    04:00 +25°C° 0 mm 2 mps 698 mmHg 42%
    05:00 +25°C° 0 mm 3 mps 698 mmHg 42%
    06:00 +24°C° 0 mm 3 mps 698 mmHg 41%
    07:00 +27°C° 0 mm 3 mps 699 mmHg 36%
    08:00 +29°C° 0 mm 4 mps 699 mmHg 31%
    09:00 +32°C° 0 mm 4 mps 700 mmHg 26%
    10:00 +34°C° 0 mm 3 mps 700 mmHg 24%
    11:00 +37°C° 0 mm 2 mps 700 mmHg 21%
    12:00 +39°C° 0 mm 2 mps 700 mmHg 18%
    13:00 +37°C° 0 mm 1 mps 699 mmHg 19%
    14:00 +36°C° 0 mm 1 mps 698 mmHg 20%
    15:00 +35°C° 0 mm 1 mps 697 mmHg 20%
    16:00 +34°C° 0 mm 1 mps 697 mmHg 22%
    17:00 +33°C° 0 mm 1 mps 697 mmHg 23%
    18:00 +32°C° 0 mm 1 mps 697 mmHg 25%
    19:00 +31°C° 0 mm 1 mps 697 mmHg 26%
    20:00 +31°C° 0 mm 2 mps 698 mmHg 27%
    21:00 +30°C° 0 mm 2 mps 698 mmHg 28%
    22:00 +30°C° 0 mm 2 mps 698 mmHg 29%
    23:00 +30°C° 0 mm 2 mps 698 mmHg 30%
    Show more